AirNav   Pilot Hours Calculator
 
 882 users online  

40AR Lost Bridge Village Airport
Garfield, Arkansas, USA

GOING TO GARFIELD?


FAA INFORMATION EFFECTIVE 12 SEPTEMBER 2019

Location

FAA Identifier: 40AR
Lat/Long: 36-23-47.6600N 093-54-35.2300W
36-23.794333N 093-54.587167W
36.3965722,-93.9097861
(estimated)
Elevation: 1440 ft. / 439 m (estimated)
Variation: 04E (1995)
From city: 4 miles SE of GARFIELD, AR
Time zone: UTC -5 (UTC -6 during Standard Time)
Zip code: 72732

Airport Operations

Airport use: Private use. Permission required prior to landing
Activation date: 05/1997
Control tower: no
ARTCC: MEMPHIS CENTER
FSS: JONESBORO FLIGHT SERVICE STATION
Attendance: UNATNDD
Wind indicator: yes
Segmented circle: no
Landing fee: yes

Airport Communications

WX AWOS-3PT at ROG (10 nm W): 134.375 (479-631-9196)
WX AWOS-3PT at VBT (15 nm W): 134.975 (479-273-9198)
WX AWOS-3 at ASG (17 nm SW): 124.675 (479-750-2967)

Nearby radio navigation aids

VOR radial/distance  VOR name  Freq  Var
RZCr045/13.6RAZORBACK VORTAC116.4004E
HROr274/34.0HARRISON VOR/DME112.5004E
EOSr130/36.8NEOSHO VOR/DME117.3007E

 
NDB name  Hdg/Dist  Freq  Var  ID
SILOAM SPRINGS062/30.628404ESLG ... .-.. --.

Airport Services

Runway Information

Runway 13/31

Dimensions: 3150 x 40 ft. / 960 x 12 m
Surface: asphalt
Operational restrictions: LAND RY 31; TKOF RY 13.
RUNWAY 13  RUNWAY 31
Traffic pattern: leftleft
Obstructions: 301 ft. gnd, 500 ft. from runway
+20 FT TREES 100 TO 600 FT FROM RY END.
30 ft. trees, 200 ft. from runway
370 FT HILL 100 TO 300 FT FROM RY END; AND 30 FT BLDG 100 FT FROM RY END.

Airport Ownership and Management from official FAA records

Ownership: Privately-owned
Owner: LOST BRIDGE VILLAGE COMMUNITY
12477 LODGE DRIVE
GARFIELD, AR 72732
Phone 479-359-3204
Manager: STEVE BRAY
21020 BLACK OAK DRIVE
GARFIELD, AR 72732
Phone 479-359-0317

Airport Operational Statistics

Aircraft operations: 150/year *
67% local general aviation
33% transient general aviation
* for 12-month period ending 31 August 2006

Additional Remarks

RW 13/31 TREES ALONG EDGE ON BOTH SIDES.
RY 13/31 POSSIBILITY OF DEER AND/OR PEOPLE ON THE RY AT ANY TIME.
RWY 13/31 POWER LINES BOTH SIDES OF RY.
AIRFIELD USAGE POLICY CAN BE FOUND AT HTTP://WWW.LBVCA.COM
FOR CD CTC MEMPHIS ARTCC AT 901-368-8453.

Instrument Procedures

There are no published instrument procedures at 40AR.

Some nearby airports with instrument procedures:

KROG - Rogers Executive Airport - Carter Field (10 nm W)
4M1 - Carroll County Airport (14 nm E)
KVBT - Bentonville Municipal Airport/Louise M Thaden Field (15 nm W)
KASG - Springdale Municipal Airport (17 nm SW)
94K - Cassville Municipal Airport (18 nm N)
 
Loc | Ops | Rwys | IFR | FBO | Links
Com | Nav | Svcs | Stats | Notes

Branson Jet Center
AirBoss

 
Area around 40AR (Lost Bridge Village Airport)
 
Road maps at: MapQuest Bing Google
 
Aerial photo
WARNING: Photo may not be current or correct
Aerial photo of 40AR (Lost Bridge Village Airport)
Do you have a better or more recent aerial photo of Lost Bridge Village Airport that you would like to share? If so, please send us your photo.

 
Sectional chart

 
Airport distance calculator
Flying to Lost Bridge Village Airport? Find the distance to fly.

From to 40AR

Sunrise and sunset
Times for 19-Sep-2019
 Local
(UTC-5)
 Zulu
(UTC)
Morning civil twilight06:3611:36
Sunrise07:0212:02
Sunset19:1700:17
Evening civil twilight19:4200:42

Current date and time
Zulu (UTC)  19-Sep-2019 11:51:03
Local (UTC-5)  19-Sep-2019 06:51:03
 
METAR
KROG 
9nm W 
191058Z 11006KT 10SM CLR 22/20 A3003 RMK AO2 SLP149 T02220200
KVBT 
15nm W 
191056Z AUTO 00000KT 10SM CLR 21/19 A3003 RMK AO2 SLP157 T02110189
KASG 
17nm SW 
191048Z 00000KT 10SM CLR 21/21 A3002
TAF
KROG 
9nm W 
190520Z 1906/2006 09005KT P6SM SKC FM191600 13009KT P6SM VCTS SCT050CB BKN150 FM200200 12004KT P6SM BKN250
NOTAMs
Click for the latest NOTAMs
NOTAMs are issued by the DoD/FAA and will open in a separate window not controlled by AirNav.

 

 
 

Would you like to see your business listed on this page?

 If your business provides an interesting product or service to pilots, flight crews, aircraft, or users of the Lost Bridge Village Airport, you should consider listing it here.  To start the listing process, click on the button below
 
Add a business
 

Other Pages about Lost Bridge Village Airport

Update a link
 
Copyright © AirNav, LLC. All rights reserved. Privacy Policy  Contact